Terminal Aerodrome Forecast
Issued by NWS Memphis, TN

Home | Current Version | Previous Version | Text Only | Print | Product List | Glossary On
Versions: 1 2 3 4 5 6 7 8 9 10 11 12 13 14 15 16 17 18 19 20 21 22 23 24 25 26 27 28
000
FTUS44 KMEG 300800 AAA
TAFMEM
TAF AMD
KMEM 300859Z 3009/3106 21008KT P6SM VCTS SCT050CB OVC150
      TEMPO 3012/3016 5SM -TSRA BKN050CB
     FM301600 18010KT P6SM -SHRA VCTS SCT035 OVC050CB
     FM310100 16008KT 5SM -SHRA BR VCTS SCT015 BKN025CB=

USA.gov is the U.S. government's official web portal to all federal, state and local government web resources and services.